Tracking 19489 objects as of 23-Jan-2019
HD Live streaming from Space Station
objects crossing your sky now

ATLAS CENTAUR R/B

Track ATLAS CENTAUR R/B now!
10-day predictions
ATLAS CENTAUR R/B is classified as:


NORAD ID: 38770
Int'l Code: 2012-048N
Perigee: 456.1 km
Apogee: 709.2 km
Inclination: 64.7 °
Period: 96.2 minutes
Semi major axis: 6953 km
RCS: Unknown
Launch date: September 13, 2012
Source: United States (US)
Launch site: AIR FORCE WESTERN TEST RANGE (AFWTR)

Note: This is a ROCKET BODY
aabbcc
Your satellite tracking list
Your tracking list is empty




NASA's NSSDC Master Catalog

Two Line Element Set (TLE):
1 38770U 12048N   19019.79084681 0.00000800  00000-0  48796-4 0    02
2 38770  64.6506 344.8283 0182000 291.1608  68.8391 14.97223960    02
Source of the keplerian elements: McCants